GFSNE_2pvu_pres_033.txt.gz
Presure
235 231 228 227 225 221 217 205 209 210 134 217 216 214 220 222 218 197 200 212 220 225 214 233 235 222 219 212 173 199 238 237 231 234 243 231 242 236
239 233 201 227 224 143 225 146 210 178 146 212 185 200 205 213 213 214 203 217 228 207 230 228 217 203 232 192 185 249 263 251 237 235 241 214 211 222
258 253 237 231 232 224 204 212 207 208 211 193 192 210 220 212 220 197 220 176 228 182 216 225 198 199 158 227 251 253 254 240 237 220 207 217 219 223
255 250 249 254 238 229 221 224 218 223 217 210 199 218 217 147 153 229 230 237 222 224 214 228 230 221 258 243 251 264 229 237 197 247 243 239 238 243
311 245 248 245 228 209 241 229 224 197 192 222 155 166 234 216 196 221 213 170 213 217 231 231 246 259 248 239 249 216 200 239 237 213 212 223 220 222
287 318 266 245 239 236 177 230 217 238 204 217 195 174 203 201 184 185 225 223 226 224 244 255 253 239 254 266 238 236 243 214 220 229 224 230 240 246
328 317 291 277 248 237 245 225 223 208 222 177 154 217 203 176 224 233 227 242 244 250 248 260 258 267 236 250 252 228 222 230 231 226 242 259 263 265
352 321 293 278 264 240 243 243 227 226 225 222 216 215 225 229 234 240 241 256 249 266 302 277 261 237 250 244 217 224 230 248 244 253 261 265 278 272
207 154 270 271 256 251 269 233 162 204 231 235 234 233 238 245 243 262 262 286 276 259 244 241 239 211 223 239 256 247 249 261 263 268 283 352 417 387
296 286 272 254 254 260 163 254 256 246 248 247 255 261 266 273 275 259 216 218 204 202 245 246 247 250 245 247 262 268 262 296 390 375 389 370 355 336
271 270 265 262 267 268 269 269 252 261 273 274 241 236 234 239 206 241 252 246 252 128 261 267 260 254 259 266 278 373 387 388 382 391 379 368 356 349
240 239 238 236 231 231 235 235 227 220 226 232 232 234 237 240 242 249 240 246 251 249 254 252 258 281 358 355 364 383 382 378 390 367 352 343 333 322
227 224 224 226 226 226 223 211 221 229 231 235 217 208 173 240 238 247 244 255 264 307 360 365 350 346 346 366 358 366 360 367 358 340 332 321 313 335
236 241 237 233 234 234 232 231 231 231 219 217 233 224 234 243 251 347 385 371 365 357 349 342 340 349 353 343 316 336 371 354 334 322 310 322 331 334
221 219 221 223 220 223 227 229 231 231 235 230 297 298 297 401 382 366 355 344 337 331 329 348 343 338 331 261 327 324 341 321 324 305 380 331 324 326
222 219 220 221 223 226 228 229 229 267 323 287 277 413 391 372 359 342 333 324 325 323 313 355 343 329 255 315 351 330 321 304 303 388 318 315 321 326
223 219 222 203 226 216 225 213 156 277 280 309 354 379 373 353 338 324 310 308 327 316 309 359 330 302 310 344 332 323 302 345 360 318 313 317 317 305
221 223 224 216 233 196 152 149 269 281 300 320 361 341 319 338 318 306 305 324 324 311 337 387 309 306 348 327 320 337 377 329 315 318 304 288 288 287
214 221 217 133 165 148 317 262 277 288 307 337 356 334 316 309 308 312 319 319 317 332 356 334 302 350 315 306 327 325 305 306 309 282 284 279 280 281
215 159 226 246 250 315 263 270 284 306 328 354 346 329 314 310 310 317 326 337 355 355 373 307 332 328 300 323 348 321 301 287 279 278 272 273 268 279
216 215 231 251 298 302 263 278 311 337 374 357 333 320 316 318 325 331 337 291 364 319 316 324 347 310 346 334 300 281 278 269 268 269 269 270 270 274
228 226 249 255 328 266 276 313 364 363 374 365 348 323 317 326 339 344 328 353 192 343 310 339 317 343 322 299 284 278 277 272 261 257 256 264 269 293
237 241 270 331 269 275 291 375 354 309 339 366 360 347 333 322 350 348 352 367 369 310 338 309 345 312 290 282 275 270 261 260 258 271 264 269 265 290

GFSNE_2pvu_pres_036.txt.gz
Presure
307 287 266 268 267 256 245 235 231 228 240 230 216 166 199 202 152 128 204 173 222 181 199 241 201 209 228 230 189 226 235 231 207 220 209 223 218 158
267 267 279 294 254 248 259 258 245 230 195 236 213 206 213 210 204 197 164 196 201 194 189 232 226 215 220 207 222 215 208 203 233 223 169 180 239 209
247 228 236 252 263 283 256 248 234 236 229 183 238 215 215 201 208 200 175 207 196 214 170 219 221 195 186 191 222 234 229 222 233 233 204 261 241 240
227 339 329 308 305 294 263 283 244 234 226 214 190 203 197 198 123 187 165 207 172 219 186 228 148 226 231 164 239 229 243 237 242 229 243 262 237 259
351 353 321 306 299 289 267 258 282 241 243 222 215 127 211 214 214 232 182 219 193 180 222 221 238 234 241 227 236 234 242 247 240 238 265 275 274 245
323 342 343 323 304 291 281 254 278 271 241 236 231 242 231 234 222 133 224 239 234 236 230 218 231 232 225 241 241 244 242 284 259 300 270 264 243 249
308 310 314 330 307 318 308 266 266 274 258 238 228 227 229 223 224 224 218 167 218 233 224 229 232 237 246 256 259 274 253 242 251 252 251 236 231 217
318 308 309 161 298 296 295 288 276 270 265 258 246 236 230 222 232 203 228 226 231 232 225 241 247 228 264 282 300 249 225 215 216 210 213 217 224 261
302 345 335 330 322 313 325 287 297 267 268 265 260 257 249 236 235 247 251 246 247 243 242 247 270 290 272 254 236 223 244 255 258 245 262 258 259 286
280 285 277 191 281 285 290 284 273 265 256 251 245 246 251 255 258 258 258 267 273 283 280 265 246 248 221 195 250 266 268 259 275 330 347 382 395 389
230 231 235 245 251 252 257 255 257 248 256 257 258 260 257 250 250 248 239 235 235 152 251 244 238 257 259 265 278 276 304 365 375 362 391 383 373 376
242 239 238 229 226 224 220 219 216 222 222 217 226 226 235 238 239 149 176 161 242 243 238 258 282 293 302 323 368 366 362 364 370 375 359 355 346 353
238 234 232 232 230 230 230 229 230 228 227 227 229 228 230 230 208 229 204 249 280 314 306 296 370 365 357 344 337 344 361 355 359 362 342 367 348 329
237 233 230 230 227 224 222 224 225 218 218 228 223 214 186 295 310 251 284 282 355 377 364 354 341 338 333 329 316 336 355 355 363 283 357 343 329 316
225 226 224 225 222 224 221 215 213 222 238 239 166 335 148 271 266 306 348 367 376 355 342 328 320 323 330 317 306 344 339 327 331 356 335 316 344 342
223 219 219 216 221 219 217 215 219 242 254 182 152 278 263 277 329 339 368 345 323 316 317 313 313 330 326 308 327 388 319 312 347 330 313 368 327 318
218 217 218 219 223 216 229 229 252 256 209 227 208 266 292 332 348 374 354 339 321 313 317 325 328 324 321 299 389 318 311 348 312 319 367 319 329 307
211 212 214 225 213 227 236 243 258 271 319 279 265 312 337 365 379 363 344 331 316 315 322 334 344 357 361 397 315 318 351 303 345 355 310 297 295 283
213 204 206 215 226 207 238 259 273 302 275 263 321 358 365 317 305 366 353 326 321 326 331 344 358 299 334 310 326 347 334 356 304 318 285 289 284 280
215 221 221 233 240 238 189 265 298 271 287 354 355 324 342 348 325 361 358 337 321 314 342 353 360 361 313 319 327 327 318 324 307 284 285 275 270 267
220 220 239 247 239 119 257 299 268 303 355 342 348 350 357 360 361 360 356 350 331 344 347 351 343 330 330 320 308 345 293 294 282 277 268 264 270 275
236 240 244 240 251 252 299 270 297 356 363 358 398 390 374 377 371 362 361 355 346 352 355 367 327 333 314 330 348 296 285 278 267 258 255 262 268 271
228 241 248 243 266 288 286 275 353 352 360 418 401 394 393 399 382 375 270 356 346 348 363 314 335 328 341 335 297 288 269 262 263 271 277 263 259 266

GFSNE_2pvu_pres_039.txt.gz
Presure
276 271 274 244 251 241 241 247 256 251 235 253 260 227 234 233 218 208 212 207 159 216 161 219 216 204 209 210 210 219 231 217 209 230 221 180 229 206
259 246 292 350 241 267 221 273 266 236 255 254 199 205 228 209 223 206 202 203 205 206 210 206 196 207 212 175 203 181 229 169 237 182 198 228 205 234
292 273 396 379 424 314 323 201 317 238 212 246 240 213 235 229 220 212 203 205 196 214 169 196 154 206 192 201 212 206 214 219 176 219 232 225 190 216
243 297 356 367 370 364 311 315 324 296 254 255 228 239 250 237 229 220 211 219 207 207 214 215 206 213 217 172 214 208 217 148 224 210 232 210 227 213
388 332 351 325 221 372 331 310 301 300 291 292 279 254 251 239 220 241 235 247 229 221 151 232 219 220 215 223 155 225 219 229 221 224 242 244 232 249
332 312 336 316 312 329 357 322 299 292 279 278 284 262 259 244 224 247 223 220 231 223 217 211 217 217 216 221 230 227 227 220 228 238 223 241 240 247
277 350 372 322 321 319 329 333 314 288 279 269 273 264 252 246 263 231 227 231 225 225 220 218 216 215 225 226 228 231 241 239 246 246 249 255 259 275
259 255 297 297 324 319 312 301 303 290 290 273 259 271 272 264 271 245 247 243 237 230 228 214 237 235 239 243 242 244 250 263 270 272 280 205 236 247
247 257 250 230 265 279 278 300 316 318 300 281 274 271 269 263 265 267 257 263 253 245 241 248 249 257 267 271 274 288 293 289 244 247 253 248 239 156
245 241 243 245 248 232 227 243 249 252 250 251 254 251 248 261 257 256 255 257 260 267 269 272 276 264 153 187 202 244 252 254 253 243 227 292 325 310
256 249 248 242 239 237 241 241 238 237 235 234 234 230 226 225 217 219 225 225 226 229 225 218 222 243 246 247 251 265 279 311 318 310 368 376 367 359
236 236 233 231 234 229 229 227 226 225 224 225 223 218 218 217 220 230 235 236 229 144 218 236 241 259 266 305 305 297 374 375 370 363 355 342 353 351
224 223 225 227 225 223 223 219 217 225 221 210 210 207 213 214 213 229 244 160 290 289 328 308 293 280 277 319 360 355 354 351 345 352 332 325 350 352
221 223 222 219 219 219 219 215 219 218 215 208 223 237 245 259 270 284 285 318 245 236 274 277 284 371 365 343 330 325 329 327 337 343 318 357 347 315
217 222 220 216 210 214 215 213 217 217 213 237 246 255 265 285 338 300 282 268 271 282 348 396 385 367 347 328 314 316 321 335 343 325 396 328 315 359
216 219 218 222 216 221 221 214 217 238 172 247 258 268 301 293 274 264 290 341 345 383 330 317 357 366 333 320 308 311 324 332 342 320 334 312 344 323
234 218 218 217 224 220 220 233 243 242 253 262 123 304 285 268 355 352 344 336 327 330 341 355 368 364 327 322 326 344 350 366 375 347 328 333 336 379
245 244 212 210 219 228 241 234 239 255 258 272 287 279 315 344 356 356 351 347 347 348 347 353 364 363 333 324 351 358 367 362 374 331 329 330 349 318
255 215 214 216 238 231 244 256 258 254 265 281 285 307 321 365 448 425 404 389 370 358 356 356 361 363 339 347 346 356 378 363 331 319 330 311 313 287
210 218 228 229 229 255 257 259 263 260 269 292 274 338 333 352 419 408 396 387 376 368 336 253 369 362 354 350 354 362 372 343 317 341 340 304 288 282
227 226 224 226 250 261 263 257 261 263 300 281 297 325 325 331 381 411 405 397 402 396 372 370 367 353 358 371 364 325 352 357 323 338 304 274 269 269
230 237 238 233 255 262 265 271 253 275 294 265 344 317 323 324 323 350 390 387 383 379 370 349 344 359 372 313 336 341 337 315 296 288 274 270 267 259
229 236 242 249 256 261 263 265 275 299 276 279 338 312 313 324 320 322 321 404 386 370 362 358 364 318 335 347 324 334 317 286 274 263 256 261 269 266

GFSNE_2pvu_pres_042.txt.gz
Presure
284 278 261 255 272 265 288 299 310 296 291 236 233 249 259 244 232 233 211 234 214 223 222 231 219 190 213 214 218 209 197 198 220 197 164 213 218 217
270 255 267 260 276 262 251 387 386 384 428 339 339 310 251 254 238 223 226 228 204 220 208 225 217 220 213 214 208 215 215 186 201 211 216 192 210 213
252 269 266 259 242 282 380 346 354 367 333 303 298 336 309 267 236 246 237 220 228 209 198 216 217 218 218 219 212 206 213 162 219 213 195 215 215 207
263 274 246 267 270 309 356 333 335 371 315 284 305 314 306 297 275 259 209 192 215 236 220 226 224 224 215 216 220 208 214 210 215 213 163 218 160 158
267 248 256 254 259 266 344 332 342 374 311 305 292 312 293 280 270 265 254 237 219 211 232 222 219 224 228 221 213 212 208 209 217 211 222 222 220 219
241 257 254 254 258 256 290 338 334 377 318 304 290 284 289 278 272 276 254 235 252 247 227 218 235 231 234 229 220 212 218 216 227 223 224 220 233 241
249 242 250 253 248 258 261 250 286 322 363 365 310 299 280 279 283 282 276 272 267 243 253 240 237 240 241 237 235 222 237 234 244 243 242 234 234 240
233 231 236 236 230 247 250 250 255 241 254 306 327 295 280 281 276 273 280 286 280 267 261 262 254 258 244 260 236 244 241 241 244 243 243 250 238 251
228 223 222 219 231 239 237 239 241 237 240 235 236 240 239 249 249 254 260 261 288 251 270 266 250 250 254 258 250 247 247 245 250 253 256 254 255 280
226 223 221 220 221 234 223 228 230 230 228 228 226 230 226 225 226 229 229 230 230 228 229 231 239 251 250 266 260 263 252 258 260 200 239 240 242 246
221 219 226 223 220 222 225 218 218 222 219 220 219 219 217 219 217 215 216 224 224 221 222 224 223 223 225 231 243 170 241 251 254 258 261 269 293 319
218 220 222 216 224 213 221 221 220 215 213 219 211 208 214 218 216 207 215 225 228 232 239 242 231 233 254 162 146 233 300 327 321 316 313 294 293 364
233 227 223 226 222 211 224 230 229 217 217 224 216 221 236 243 247 260 254 261 282 307 314 318 313 189 303 297 293 289 287 289 327 378 375 355 341 332
238 237 237 240 242 239 237 216 234 211 222 222 236 243 253 270 266 264 273 296 309 290 281 288 308 327 329 330 330 368 365 346 339 369 355 346 331 326
241 238 239 240 245 249 248 254 258 215 222 237 229 257 260 261 265 273 308 291 279 349 334 326 351 348 344 339 331 322 325 341 367 360 344 331 331 358
244 247 247 248 249 252 250 206 217 228 230 223 262 265 267 274 275 307 284 291 326 350 429 417 386 357 343 342 338 333 336 338 355 348 330 332 366 379
259 256 246 249 232 257 231 225 228 227 238 252 262 265 265 276 294 299 277 325 332 333 426 430 412 398 383 361 345 343 343 352 355 336 326 360 369 391
264 260 258 259 224 227 226 224 233 246 251 266 267 271 277 281 313 272 340 314 328 331 359 441 419 404 389 370 357 352 351 355 349 333 360 367 335 339
230 228 227 229 217 223 225 225 235 251 264 267 276 278 274 308 291 311 323 313 323 329 335 404 421 427 406 378 366 321 361 356 346 349 362 381 321 332
221 220 227 228 226 227 229 231 246 262 264 277 275 277 304 306 274 355 303 316 316 329 321 340 385 390 387 381 361 343 358 355 368 375 368 322 322 355
233 233 232 235 229 234 234 241 259 265 276 276 272 284 316 268 331 347 291 309 317 315 335 317 334 389 356 342 340 344 358 322 339 334 334 327 356 325
230 236 242 239 239 237 241 253 274 279 273 269 280 321 269 285 360 305 295 306 319 320 323 337 325 318 347 377 326 326 331 349 338 317 343 353 320 290
229 233 238 239 237 243 255 272 277 266 276 280 308 264 280 327 357 287 302 313 328 323 321 332 345 344 342 340 343 347 338 346 344 322 293 286 272 266

GFSNE_2pvu_pres_045.txt.gz
Presure
251 242 232 241 283 273 255 269 277 273 279 283 355 349 354 392 397 317 263 262 175 249 219 222 216 215 219 225 220 232 216 221 221 218 226 215 217 221
243 229 246 284 267 284 269 264 270 269 271 272 359 347 394 367 404 321 278 256 244 236 226 231 228 217 207 218 220 216 221 223 221 232 217 214 215 221
242 249 281 272 279 273 259 252 265 260 258 276 384 349 315 312 344 314 294 278 265 246 240 228 231 216 206 224 218 221 200 215 210 211 212 216 214 212
260 280 266 268 279 260 235 248 241 241 247 268 282 332 312 295 301 306 331 287 291 275 267 257 224 230 215 218 194 186 230 205 231 209 221 208 214 212
275 262 274 279 262 238 222 233 228 245 242 249 258 339 318 308 319 300 286 297 273 267 261 256 262 211 198 219 238 218 205 201 209 192 200 218 216 214
254 274 283 265 243 224 234 228 228 231 229 237 238 247 264 293 308 291 287 281 285 286 279 263 258 254 256 256 238 240 221 234 229 225 220 221 218 222
276 288 268 251 214 226 233 226 231 225 229 228 236 234 237 244 233 259 288 283 284 276 282 268 273 260 257 247 231 236 228 241 228 236 235 229 230 231
291 269 249 239 227 225 218 228 224 235 216 231 226 227 228 228 229 228 232 232 231 243 255 264 293 282 278 262 252 244 242 250 243 244 241 241 241 242
279 257 239 236 224 226 222 226 228 235 225 226 223 225 218 221 227 222 219 218 224 220 220 221 224 227 249 275 293 293 302 272 256 243 237 255 250 242
263 237 193 227 236 233 230 233 234 233 235 245 250 253 223 212 221 218 217 197 228 228 229 229 223 211 215 222 221 226 228 229 241 242 252 249 268 251
230 238 235 239 237 235 234 241 240 242 243 252 260 257 208 212 211 222 231 236 249 255 256 259 259 258 244 243 244 246 246 244 243 245 242 241 186 223
239 236 237 238 238 206 230 241 242 251 259 253 264 260 215 226 232 234 228 259 268 272 271 262 265 271 287 309 315 316 313 315 318 275 159 168 273 240
246 242 245 240 242 240 241 243 247 250 255 262 241 220 232 232 233 248 252 267 267 269 280 294 312 320 289 281 314 355 354 357 362 324 317 317 287 287
253 253 255 252 250 250 252 255 259 261 262 229 231 229 229 229 234 262 268 271 281 290 291 328 289 281 345 322 332 345 354 404 371 359 357 353 352 346
264 249 248 260 259 252 265 266 265 233 231 226 226 228 228 233 249 263 269 282 281 291 327 285 361 329 316 331 331 384 414 400 390 380 366 352 351 354
288 280 279 280 280 263 230 230 231 223 227 234 229 233 237 242 264 272 282 281 287 328 277 370 329 305 318 329 335 431 404 393 384 386 383 365 354 357
224 222 224 223 216 222 230 235 234 231 241 239 235 240 243 259 280 282 278 286 320 273 306 369 298 316 316 331 331 412 416 391 384 380 378 367 355 364
242 240 236 234 232 232 231 230 233 237 237 240 243 247 260 278 277 278 287 319 267 291 361 310 299 315 316 335 315 369 411 405 387 378 240 363 355 351
227 229 228 224 222 225 222 229 234 243 245 249 254 267 280 284 279 290 315 265 285 309 353 292 304 319 321 333 318 329 367 384 402 383 377 368 346 343
224 224 222 219 224 221 232 237 246 244 251 259 273 287 285 283 298 312 275 279 297 348 288 302 314 329 325 331 321 323 391 369 355 349 352 362 367 371
218 216 218 220 230 238 238 242 242 253 264 280 289 278 288 302 302 264 280 296 334 289 300 317 330 342 332 330 338 329 329 329 316 314 328 340 338 368
213 214 223 229 235 241 242 243 252 264 286 280 284 289 307 300 293 279 298 319 293 309 328 337 349 361 342 323 326 334 342 351 339 332 336 338 344 344
216 222 228 234 242 243 245 253 275 280 285 291 292 308 299 267 285 305 314 308 322 349 360 369 377 373 372 338 324 331 345 350 350 336 339 352 363 364

GFSNE_2pvu_pres_048.txt.gz
Presure
191 240 201 249 242 239 239 277 261 272 276 266 246 239 230 245 247 321 350 321 346 378 300 261 250 245 236 247 249 218 218 222 218 219 220 200 237 218
247 249 253 252 240 239 276 270 263 282 269 249 239 233 232 240 241 255 332 359 391 394 330 268 248 242 232 235 245 229 208 216 212 210 230 219 211 227
256 255 242 243 235 252 290 265 276 278 258 234 227 228 237 236 233 240 276 359 313 323 299 265 266 266 238 233 249 250 199 228 226 206 221 220 188 209
248 239 239 247 248 286 256 284 283 271 245 222 241 231 245 225 233 228 236 254 300 303 285 272 257 277 269 241 229 238 216 211 218 226 217 214 209 219
239 251 243 267 280 264 275 280 272 252 234 223 227 229 240 231 231 235 231 231 232 265 287 274 270 275 270 256 244 244 242 227 225 219 222 217 216 217
251 252 285 277 294 262 284 275 258 242 217 219 233 240 242 263 261 268 266 231 232 228 227 235 290 289 282 272 264 268 260 260 259 251 225 215 216 206
279 288 275 288 243 288 280 262 234 233 213 216 229 242 254 257 256 271 270 217 218 230 229 224 224 226 237 253 282 270 259 259 254 247 254 228 228 230
274 260 283 256 229 230 265 237 236 226 239 237 241 243 252 256 203 232 268 248 232 225 220 235 234 242 232 231 228 218 215 286 279 277 270 271 257 258
254 259 265 250 242 226 232 242 229 237 239 238 213 246 247 220 258 272 249 213 210 230 232 252 236 230 230 253 251 240 234 231 225 220 218 222 263 273
279 271 258 247 250 233 236 239 239 237 243 239 226 245 251 256 218 240 229 236 235 229 230 230 241 261 265 264 261 257 255 259 256 244 237 234 235 234
277 265 258 250 245 245 244 245 243 247 247 249 251 257 268 275 239 232 235 228 233 228 236 235 266 268 269 272 273 274 271 271 269 262 263 265 261 257
297 281 273 264 261 259 258 256 255 253 233 258 266 271 251 232 230 231 233 154 236 242 244 247 279 279 280 287 288 287 332 332 324 320 318 318 318 303
237 241 266 289 279 274 273 272 274 279 266 240 232 226 230 237 239 245 242 246 246 250 259 277 283 284 284 306 332 312 299 291 313 305 337 337 343 347
227 229 226 225 227 227 251 250 249 229 225 229 236 239 237 235 234 235 237 257 265 273 280 286 278 283 324 301 274 315 369 327 308 328 333 341 342 346
218 219 261 250 254 256 251 241 235 229 228 228 226 231 229 238 245 251 257 267 274 285 291 291 305 320 293 264 315 351 301 305 324 328 342 331 417 427
217 216 227 222 227 229 225 227 227 224 227 230 230 238 245 242 247 258 268 274 284 289 291 310 326 285 263 301 348 287 299 307 332 334 349 336 397 427
215 212 215 223 215 221 223 222 221 220 220 231 236 242 244 250 258 266 276 281 279 293 313 298 266 278 303 338 285 296 304 321 336 336 335 393 382 418
216 210 215 213 214 220 216 221 215 215 223 233 241 249 251 260 268 279 281 285 296 308 295 265 284 309 329 294 301 310 323 332 331 345 324 400 353 380
218 215 214 206 214 215 220 216 215 219 230 239 250 253 259 268 281 283 297 301 332 276 273 296 320 321 306 312 326 339 341 350 331 342 316 354 362 358
223 214 216 218 217 218 215 215 219 229 240 251 254 260 272 283 293 308 326 335 264 278 301 315 333 342 339 351 342 354 367 324 333 341 337 328 322 322
227 216 205 216 218 217 216 221 230 242 251 254 264 278 289 309 317 348 305 299 280 304 322 344 379 396 390 384 377 375 372 343 350 305 330 340 348 340
235 209 212 219 216 217 225 231 243 254 256 269 289 300 320 331 325 266 283 282 312 337 361 410 423 415 319 305 303 304 300 306 357 342 340 335 343 343
235 219 222 218 217 228 230 242 255 257 291 307 319 325 350 311 341 322 284 318 342 369 411 411 276 278 291 265 263 283 280 280 288 279 278 278 278 338

GFSNE_2pvu_pres_051.txt.gz
Presure
189 184 185 185 196 194 236 256 254 248 256 286 276 298 284 273 253 238 233 236 254 243 254 273 390 358 292 269 250 242 230 243 240 219 177 236 218 229
187 190 186 195 268 211 250 249 251 261 277 279 304 274 274 254 245 228 242 256 266 312 261 242 365 360 271 261 251 273 243 230 236 230 217 220 210 218
172 184 246 251 203 255 248 254 255 281 281 281 277 279 256 248 239 233 242 260 274 291 244 238 255 314 276 264 257 255 267 240 226 246 230 220 212 210
252 212 246 266 259 256 258 252 290 270 282 279 285 265 243 244 237 224 249 255 269 283 272 227 225 249 239 265 274 276 257 256 241 215 241 237 228 228
261 222 248 256 260 265 284 291 291 282 253 287 255 219 242 232 245 245 214 258 263 231 217 253 234 256 250 222 245 274 288 270 254 268 229 253 238 208
250 252 252 254 277 289 283 264 256 264 249 274 243 247 239 240 243 243 246 250 262 250 250 240 223 219 230 232 235 247 234 261 291 269 256 242 244 238
252 249 252 265 277 291 295 279 265 253 252 238 233 241 245 245 244 248 250 257 265 279 248 238 234 239 237 235 240 244 234 239 238 229 268 264 259 250
246 257 243 277 268 298 279 268 262 246 251 249 250 248 247 243 250 250 253 269 277 259 242 232 233 229 229 232 231 230 234 232 253 255 237 286 246 258
246 250 268 263 252 259 285 276 264 259 254 253 249 248 257 256 253 265 274 270 243 229 231 235 235 239 245 184 238 241 244 243 263 262 261 257 252 243
242 262 265 248 243 242 246 267 283 273 267 266 269 260 266 275 284 250 229 228 241 241 240 241 240 239 243 257 260 258 269 280 287 273 269 271 269 263
250 265 252 241 242 233 230 236 237 233 239 241 239 239 239 233 234 237 233 231 231 228 236 244 249 255 267 273 278 282 280 283 284 282 285 291 292 281
251 255 243 238 230 227 236 232 255 250 224 248 245 240 231 227 226 228 230 230 240 249 249 248 262 271 280 282 284 288 289 291 294 301 310 335 332 328
250 247 237 232 228 224 218 230 228 227 229 225 221 229 230 226 220 224 232 238 245 253 254 263 275 280 278 287 290 295 312 322 339 329 302 277 270 308
245 243 232 229 226 222 216 217 218 215 221 217 219 221 222 222 220 220 232 242 254 257 265 275 278 282 284 290 292 311 310 295 272 270 294 358 359 319
244 240 231 228 226 218 212 212 217 219 218 216 219 218 225 220 220 230 241 252 258 267 277 281 284 292 300 303 315 293 274 282 293 323 372 293 288 303
237 240 234 227 218 217 215 215 215 218 215 215 220 220 224 218 229 240 252 257 270 280 286 293 300 309 328 334 268 278 294 312 321 346 304 314 320 323
233 237 236 235 221 220 219 218 220 216 217 218 220 224 220 228 239 251 260 274 281 292 301 318 341 346 284 278 283 303 324 326 342 329 330 336 338 347
237 238 234 232 238 231 221 216 219 223 211 216 221 221 228 237 247 263 277 288 297 306 330 321 331 284 295 295 329 343 360 369 367 354 354 349 352 339
234 241 238 229 228 245 240 235 231 229 213 217 224 228 238 245 264 276 300 313 330 313 315 329 318 290 330 349 381 417 411 400 385 374 373 365 316 336
236 248 243 239 239 243 237 234 245 228 221 227 228 237 244 263 287 318 357 359 316 349 345 283 299 351 374 412 392 294 281 356 377 397 391 337 330 343
265 241 240 241 230 257 248 242 228 225 225 228 237 243 264 314 329 397 358 364 320 324 278 301 357 364 278 279 289 283 283 286 280 289 287 317 322 324
243 242 246 233 231 223 237 218 226 227 229 236 245 265 319 315 274 310 283 335 331 309 297 354 367 271 276 287 278 281 262 265 263 268 270 279 278 282
245 269 240 256 229 239 232 230 228 230 236 250 297 317 309 264 287 296 288 303 280 303 356 390 276 278 275 269 249 242 237 240 244 247 241 248 259 265

GFSNE_2pvu_pres_054.txt.gz
Presure
163 183 169 177 170 181 183 208 205 213 244 254 266 275 283 282 297 280 278 263 248 242 248 221 271 295 236 225 346 345 348 382 250 239 227 241 230 234
160 168 188 171 174 180 143 215 236 266 248 227 282 281 299 296 269 283 269 220 247 249 251 222 230 267 243 328 315 274 298 276 253 238 229 231 241 233
171 176 183 187 189 141 209 219 262 247 270 287 290 276 256 270 265 266 245 230 245 243 244 252 253 285 252 231 246 234 239 274 254 263 243 240 237 245
162 171 184 223 98 233 241 250 252 216 283 321 301 291 274 267 273 244 234 245 248 244 248 213 276 230 254 245 243 237 289 234 278 259 254 248 234 238
188 185 216 202 227 208 185 249 256 287 265 305 285 274 271 252 258 255 245 251 248 251 257 265 255 281 255 241 236 243 239 244 275 233 250 269 264 245
164 206 220 251 182 238 195 255 261 273 255 263 283 267 262 251 249 250 244 246 251 260 231 259 279 256 231 231 229 229 229 227 229 233 233 227 264 256
211 223 247 257 235 230 246 253 277 262 250 248 260 278 270 261 257 259 257 260 266 285 271 237 229 237 243 243 241 241 241 243 243 243 237 226 238 238
264 242 216 251 246 214 242 255 277 252 247 248 241 236 244 277 276 278 280 289 249 242 238 236 233 235 232 232 238 238 241 244 246 245 247 244 241 238
207 261 247 244 234 246 239 261 265 249 240 236 240 259 254 242 241 244 243 241 231 232 231 228 225 227 235 242 251 253 251 254 260 263 262 258 257 252
247 240 249 230 242 249 256 264 253 242 236 230 229 235 236 229 234 230 217 228 224 225 225 223 218 224 239 250 256 259 265 282 287 287 292 296 289 280
253 238 225 236 246 250 239 254 247 239 236 227 223 219 218 220 221 219 220 218 220 223 223 218 224 236 251 256 259 270 279 281 283 286 285 289 290 289
234 222 231 236 253 236 242 251 242 240 232 228 221 219 211 219 219 221 214 214 220 224 218 221 233 246 255 259 272 279 284 291 291 297 300 301 297 307
227 233 231 230 243 240 241 247 243 237 230 228 225 217 218 221 221 223 219 216 221 223 222 230 240 252 261 281 287 292 296 303 309 324 323 326 336 304
237 237 223 238 243 241 238 241 241 240 233 228 222 224 224 220 223 219 215 215 222 221 227 238 249 265 286 294 297 303 312 327 355 342 310 284 278 281
232 226 236 227 235 245 238 242 231 241 239 236 228 222 221 220 221 228 222 215 225 225 236 246 269 290 303 303 311 328 350 316 290 300 299 290 290 299
235 236 225 238 234 236 241 237 238 242 240 237 237 242 250 244 233 245 223 227 226 235 248 272 304 316 329 370 353 339 323 320 305 313 324 334 341 339
241 230 231 240 232 234 244 244 232 236 236 249 244 244 253 235 241 235 227 226 236 250 273 331 331 314 326 350 344 283 300 320 344 374 401 411 404 393
230 230 242 243 232 238 251 232 236 251 253 246 243 248 254 234 232 227 228 237 250 273 336 282 278 303 290 322 285 310 345 314 289 336 326 428 410 402
236 237 243 235 244 258 236 239 261 242 246 248 236 219 240 230 231 229 240 253 274 331 331 385 291 360 332 281 307 361 279 277 287 282 268 289 291 286
241 238 242 259 243 240 251 262 243 245 251 242 239 239 239 229 233 240 255 286 324 305 327 289 359 320 287 308 354 290 281 274 282 267 261 267 273 276
255 256 241 240 248 259 245 247 247 268 243 249 248 229 230 238 241 256 317 315 283 313 282 368 310 295 322 372 287 280 280 269 251 245 240 247 246 245
241 244 251 257 250 249 251 268 242 232 231 228 228 246 244 243 257 315 307 276 352 325 350 330 294 337 376 281 278 268 267 243 235 234 225 224 230 243
258 260 259 257 263 230 236 237 239 244 245 260 249 258 254 261 323 304 273 361 352 291 371 290 336 371 299 272 269 277 253 239 224 223 214 220 233 247

GFSNE_2pvu_pres_057.txt.gz
Presure
166 133 158 139 168 156 173 172 178 185 194 199 203 220 263 252 207 281 300 289 274 268 267 243 243 243 255 259 293 254 267 263 314 327 302 296 264 255
162 163 137 162 137 172 163 179 188 176 197 208 139 245 145 274 278 275 289 272 275 253 264 247 245 257 256 266 296 232 256 242 296 313 292 289 266 244
139 157 170 157 171 165 169 183 190 248 196 251 206 245 230 283 267 256 281 267 258 250 247 251 252 255 263 283 289 272 251 242 260 299 296 283 244 242
164 163 137 181 194 198 193 261 206 204 243 265 254 261 261 281 262 253 271 269 260 256 262 261 265 263 283 290 244 238 243 245 235 234 236 310 273 239
151 171 183 196 183 259 204 196 265 185 254 247 247 254 274 265 253 250 245 245 276 271 268 275 283 283 241 232 244 240 238 237 236 242 243 224 260 262
173 169 190 232 199 206 239 239 234 249 247 249 250 259 278 255 247 239 254 241 240 233 234 233 239 243 236 227 229 228 228 231 238 242 237 237 244 227
224 202 201 167 252 247 256 257 259 251 207 250 234 270 268 248 239 237 241 236 243 233 235 231 222 231 228 227 228 223 219 223 234 245 249 249 244 237
269 253 257 242 267 272 238 247 242 233 248 243 250 262 258 250 231 231 229 226 220 229 220 224 222 222 220 226 226 220 218 229 245 253 255 256 254 251
274 247 258 252 234 246 256 244 240 248 240 230 260 253 256 245 241 233 229 224 221 216 220 224 225 220 226 223 225 223 227 233 243 253 257 259 265 271
297 268 256 251 249 246 249 227 244 231 228 244 244 250 253 246 240 235 233 226 222 218 222 222 221 218 216 220 220 222 229 238 246 257 262 271 284 287
281 281 255 252 248 239 236 237 226 239 246 237 246 243 248 248 244 239 236 233 226 225 219 220 227 226 217 218 223 227 234 243 255 265 283 292 296 298
262 248 247 244 231 236 243 228 235 227 238 239 244 236 244 242 244 245 243 239 231 228 229 228 232 234 243 228 229 230 241 255 277 297 305 306 304 308
247 251 252 238 224 249 229 228 231 231 230 235 240 237 246 242 238 243 241 235 235 237 248 250 237 246 232 227 230 241 262 292 321 324 324 322 331 340
253 253 251 232 246 227 230 231 226 226 243 232 243 228 238 252 234 240 247 250 248 250 264 252 244 228 228 231 241 272 327 344 297 370 376 365 350 324
228 240 246 243 243 230 230 230 230 228 247 234 246 236 242 256 238 257 255 245 247 238 247 238 226 230 230 243 277 343 335 385 320 292 304 283 296 309
227 246 246 237 235 233 226 233 228 242 233 232 244 241 262 240 253 250 244 249 241 226 243 232 230 232 248 287 330 313 331 292 369 339 302 327 347 344
242 242 237 224 224 228 228 231 245 231 237 249 244 258 239 258 249 247 246 266 256 255 247 228 239 252 294 315 375 349 290 330 310 306 344 284 295 291
229 226 230 232 229 239 246 245 238 238 239 253 246 246 260 241 251 257 256 237 229 227 260 242 260 304 310 297 397 283 357 303 302 352 279 285 285 280
228 236 245 249 239 240 235 238 247 249 262 240 252 253 246 254 275 235 233 233 229 258 262 264 320 316 286 362 291 344 301 326 375 284 286 283 261 256
241 242 244 234 238 242 246 260 251 242 249 257 255 251 233 240 247 270 271 267 267 263 264 320 301 280 363 290 354 303 332 374 290 279 278 259 247 239
235 243 258 260 260 253 244 248 257 257 251 224 233 226 267 278 273 271 271 263 261 294 314 301 339 349 363 368 305 330 363 296 279 274 281 239 233 221
257 254 248 244 244 251 251 245 236 217 231 236 222 226 261 269 269 260 256 259 310 309 318 327 355 363 293 366 323 350 332 279 273 269 256 232 228 222
251 253 255 255 244 238 235 218 224 230 228 227 245 236 264 257 251 255 289 312 301 259 346 365 378 323 358 300 353 293 281 283 280 250 243 231 219 226

GFSNE_2pvu_pres_063.txt.gz
Presure
184 189 186 178 192 172 199 203 186 192 203 203 191 200 212 220 227 228 232 218 254 252 256 277 279 276 263 255 245 251 252 245 238 245 250 250 253 246
201 198 201 189 181 183 190 193 197 207 195 210 193 183 219 214 226 251 247 122 256 232 256 260 249 270 262 252 244 280 230 255 251 245 240 238 241 242
178 182 180 176 178 188 190 197 208 208 239 233 237 233 229 247 246 254 283 241 225 243 263 248 251 268 256 247 239 235 225 227 231 223 233 230 236 235
180 184 188 193 192 200 200 202 216 223 223 224 159 217 227 237 231 244 241 218 255 242 247 248 238 267 256 242 240 233 229 225 221 229 226 219 230 229
203 205 201 204 202 193 211 153 237 234 236 232 241 234 265 265 261 253 257 253 242 243 240 239 254 259 261 253 244 232 232 227 221 221 228 227 223 223
211 204 215 217 223 255 243 256 233 226 207 264 263 253 252 251 287 270 252 247 253 238 240 245 236 253 254 258 256 252 242 233 227 219 222 222 219 214
230 228 249 251 254 259 206 245 266 254 259 259 248 252 268 249 272 263 250 245 236 239 235 242 228 241 251 241 254 250 253 251 247 233 229 219 221 226
116 271 262 254 242 242 237 263 246 254 252 245 248 258 269 278 267 250 245 236 235 235 232 227 241 245 239 251 233 258 243 242 250 249 243 242 250 252
254 255 242 243 264 239 255 252 257 208 244 271 269 252 273 266 244 245 232 241 235 230 237 224 233 243 238 251 254 262 248 243 267 254 253 255 268 266
256 253 255 268 277 267 264 265 287 291 290 290 290 277 264 251 249 234 236 236 251 237 237 234 227 242 246 248 262 253 243 269 251 246 256 237 248 250
345 345 354 332 331 327 325 268 314 302 295 285 272 263 250 239 234 246 241 235 228 241 232 238 233 250 236 255 260 243 269 253 248 262 276 247 226 256
308 307 289 329 316 310 322 303 296 289 275 261 254 251 233 240 233 238 233 229 240 240 226 236 249 235 252 263 245 268 252 254 270 273 247 242 239 240
292 283 300 289 274 300 273 288 278 265 263 255 242 237 238 236 236 240 238 246 241 226 234 245 235 254 263 248 272 257 271 252 252 243 236 239 250 255
303 294 278 284 274 273 268 251 259 252 249 240 234 232 245 245 233 234 241 239 225 236 248 236 257 254 252 271 241 234 288 280 277 277 272 273 273 310
281 287 266 263 271 275 257 264 239 249 246 237 253 250 234 240 229 238 223 228 241 245 242 261 246 272 251 229 228 268 271 270 263 260 304 321 311 373
274 273 265 263 251 248 250 252 243 246 253 240 229 236 240 247 242 231 238 240 241 256 258 246 268 240 224 236 227 241 244 250 275 316 315 325 294 301
269 265 258 257 260 255 244 242 239 242 245 251 236 235 245 231 234 242 234 247 259 247 252 247 233 218 232 226 236 253 254 270 313 317 290 354 366 374
251 255 266 269 263 259 255 260 252 236 235 244 245 237 239 244 238 235 251 251 246 254 245 239 218 228 227 232 249 266 270 302 316 309 354 375 353 362
242 242 241 243 243 248 247 249 249 248 242 242 242 241 240 236 243 257 248 253 258 237 237 233 230 226 232 253 267 271 294 316 303 342 352 345 342 285
251 247 250 250 247 245 248 251 251 244 239 236 236 245 252 257 254 255 248 243 242 240 237 231 232 260 265 269 267 286 317 306 323 379 340 386 278 363
245 245 242 241 240 238 236 237 240 247 251 251 251 252 251 243 239 237 236 237 241 250 273 275 275 272 275 274 281 306 300 322 378 374 397 394 392 316
241 239 240 245 250 252 250 248 248 246 242 237 236 233 230 257 276 262 263 284 276 264 265 272 277 277 281 287 301 284 307 352 388 394 364 363 284 338
255 250 243 246 250 243 236 235 245 260 260 254 277 273 275 266 266 269 253 279 273 269 276 273 281 277 285 298 277 297 335 385 359 299 306 286 315 348

GFSNE_2pvu_pres_066.txt.gz
Presure
212 171 184 167 167 163 172 174 172 180 180 194 152 184 184 195 195 214 242 244 246 238 263 267 260 239 254 250 249 270 260 250 241 241 230 238 238 233
220 225 169 170 164 158 185 167 191 179 181 188 187 192 199 204 212 220 238 182 221 268 257 243 254 252 249 255 247 255 265 255 243 233 236 229 229 230
204 225 209 199 183 178 178 183 186 196 194 202 204 201 153 213 231 135 251 236 265 245 257 242 261 253 242 249 236 243 259 261 254 243 234 232 224 224
218 222 225 229 219 196 229 230 222 215 208 147 209 226 270 274 242 274 242 255 251 243 243 243 254 241 255 243 237 242 231 256 256 255 246 239 236 226
203 208 219 208 228 219 220 218 214 217 221 225 249 265 240 262 264 207 257 248 242 256 282 234 254 238 246 233 238 233 244 249 253 253 252 251 245 237
218 217 224 225 226 227 229 227 223 228 231 263 262 250 263 238 247 252 246 252 243 242 258 260 243 246 230 230 229 233 233 241 243 256 252 252 249 248
227 233 92 235 196 135 104 221 234 246 271 252 254 246 244 250 262 252 252 232 289 274 266 235 242 233 236 244 239 231 239 230 253 249 269 260 250 243
243 239 236 238 237 243 247 260 262 250 251 253 248 247 245 257 262 253 222 254 275 260 248 248 244 222 238 238 241 237 238 243 247 252 265 254 244 270
250 249 259 263 259 255 253 252 255 256 258 256 249 250 262 282 253 283 289 271 266 250 244 239 232 240 236 230 247 231 235 252 240 262 264 245 271 263
281 273 293 273 258 268 255 263 259 261 249 249 244 310 305 309 294 287 269 261 250 239 238 233 235 244 236 242 239 226 250 235 262 263 249 266 264 252
305 321 335 280 340 320 332 286 322 327 316 322 311 305 301 292 276 265 253 253 244 233 235 230 237 229 246 240 229 236 246 253 261 249 286 251 271 262
294 307 309 296 289 281 278 286 296 291 286 288 306 297 289 266 251 242 253 245 243 234 233 245 232 232 234 227 237 251 251 262 256 272 240 232 258 284
334 353 338 336 324 314 317 319 273 299 259 269 289 258 261 253 258 237 243 240 232 237 238 234 225 239 229 245 240 267 257 266 253 236 230 228 237 255
319 332 310 308 298 294 295 290 283 277 278 273 247 262 243 256 242 243 238 237 244 232 230 243 242 230 244 236 265 249 262 249 230 231 230 229 243 257
325 305 308 287 282 278 269 264 266 254 259 247 255 259 238 250 248 244 251 236 235 229 232 236 232 245 235 261 248 256 248 235 224 229 229 235 254 273
280 299 287 279 283 276 274 254 257 261 270 246 255 243 251 237 243 231 237 228 236 246 235 239 239 236 255 245 257 254 245 227 231 228 232 260 273 275
270 268 274 295 277 273 264 264 262 252 261 243 250 250 248 244 240 238 237 243 235 240 240 236 242 254 251 259 245 241 242 237 232 251 272 273 277 307
260 259 255 252 251 247 253 260 255 256 252 246 240 242 239 242 245 244 245 243 240 242 252 250 249 250 240 241 239 237 239 264 275 274 276 276 298 315
262 265 261 259 258 251 250 250 246 242 242 243 240 244 249 246 238 240 247 254 250 250 249 241 235 233 232 253 256 265 270 270 277 277 273 296 307 293
242 239 252 257 259 258 253 251 249 247 245 239 237 239 246 247 246 246 247 245 239 238 235 243 279 274 260 264 275 273 265 277 283 280 297 315 291 326
243 243 249 247 237 239 238 236 238 244 249 247 242 241 241 236 235 248 260 256 256 273 275 277 266 267 257 278 272 273 278 287 281 294 313 286 309 349
249 251 246 240 241 239 252 250 243 240 244 240 233 231 241 251 256 261 253 266 276 266 266 279 269 267 277 272 274 273 285 278 298 310 282 314 350 382
248 242 240 248 250 250 237 241 246 233 228 232 248 241 259 257 257 280 279 282 308 300 277 285 292 292 274 276 279 284 278 294 288 279 314 355 395 379

GFSNE_2pvu_pres_069.txt.gz
Presure
211 203 167 168 203 216 213 221 247 197 220 174 183 205 222 197 227 227 206 205 206 235 225 264 248 248 249 250 283 241 253 243 242 252 243 269 260 253
203 224 210 171 167 174 171 174 179 180 191 193 215 212 196 206 206 218 228 225 234 264 232 128 258 249 219 244 263 251 250 239 239 241 243 260 262 266
169 172 180 164 198 198 182 181 198 189 188 195 183 215 212 223 230 225 220 231 249 253 240 246 248 249 252 284 265 254 238 240 244 237 243 237 255 258
178 177 176 180 147 181 181 184 191 205 221 222 215 224 220 236 223 224 239 240 251 237 253 247 236 251 233 277 241 256 236 233 235 241 242 239 239 256
171 180 179 183 230 192 154 217 215 220 236 227 235 244 196 232 230 239 260 245 253 245 247 260 246 230 246 270 257 247 234 238 235 248 239 236 243 261
185 205 215 209 215 222 230 226 164 235 237 240 240 235 234 250 257 245 253 249 247 251 240 252 250 249 270 265 250 246 240 226 245 231 237 235 239 257
212 228 228 232 237 239 232 239 238 243 244 238 243 267 257 252 260 258 251 252 240 236 251 279 248 272 270 247 239 238 238 227 237 235 250 236 240 244
237 237 230 237 239 244 245 247 249 259 262 286 261 269 266 260 252 266 248 258 250 243 290 292 242 264 264 247 240 230 233 235 231 244 244 232 248 244
242 248 251 249 259 283 358 307 348 300 275 262 256 253 254 268 264 256 251 247 280 304 298 279 271 258 246 240 227 229 229 241 228 242 231 238 254 251
281 285 280 295 290 295 311 282 324 308 282 245 288 255 330 290 287 321 314 322 296 281 273 262 258 251 246 236 227 223 243 232 237 231 231 247 256 267
329 268 264 284 291 299 300 311 306 252 305 300 303 278 312 296 288 280 277 284 281 264 264 256 246 232 237 235 225 238 229 225 244 233 242 268 261 252
322 317 310 326 327 327 330 251 256 286 331 344 277 286 275 278 287 289 255 274 272 259 252 236 248 242 238 235 228 229 234 240 233 244 236 259 244 256
305 309 311 311 320 339 329 326 332 319 313 304 303 309 276 273 276 281 243 268 256 247 243 235 236 222 232 243 231 228 233 241 239 234 250 248 257 249
289 294 309 307 328 319 307 300 296 289 297 286 286 274 270 267 276 269 245 266 258 250 237 236 234 238 239 230 231 244 231 241 238 242 255 255 264 244
268 302 294 280 321 299 288 286 274 279 278 268 259 264 267 254 279 238 235 231 264 234 232 237 231 239 228 237 233 238 244 237 249 257 256 245 241 241
257 287 288 278 278 297 291 282 275 272 259 255 259 259 254 246 244 249 243 246 241 243 243 241 235 231 241 242 241 240 247 253 253 242 240 238 241 252
253 281 280 266 274 266 272 276 267 272 268 263 257 257 254 252 253 251 243 240 236 235 240 241 243 240 233 241 250 252 252 242 235 239 242 263 272 281
259 265 262 269 262 261 254 251 259 252 252 251 251 240 238 237 239 241 240 239 240 238 233 235 245 248 247 248 241 238 238 252 260 261 274 260 277 278
252 267 266 254 259 258 257 248 245 246 243 240 242 249 248 244 243 240 233 232 242 246 243 242 238 236 250 257 251 255 272 282 277 271 263 279 270 277
249 253 250 246 242 244 244 241 243 246 244 242 239 233 230 240 248 245 241 243 239 236 236 248 257 263 264 251 256 270 276 283 269 272 281 275 273 276
254 250 249 246 242 241 242 244 240 233 237 239 252 250 243 240 243 239 233 232 247 244 254 255 253 268 285 284 282 282 288 278 292 288 278 279 279 282
258 254 243 242 240 247 252 245 239 243 242 252 243 241 244 238 229 228 248 243 249 253 262 270 307 342 338 329 320 307 299 297 292 279 272 275 281 287
259 255 248 243 241 242 240 238 248 260 253 242 242 242 239 227 242 240 242 257 260 263 275 342 316 365 338 328 314 304 294 289 283 272 285 285 293 295